{"data":{"norad_id":59516,"epoch":"2026-05-25T00:00:27.921024Z","epoch_age_seconds":65103,"freshness":"FRESH","line1":"1 59516U 24073F   26145.00032316  .00006206  00000+0  23472-3 0  9999","line2":"2 59516  43.0016 247.2893 0001547 276.2063  83.8613 15.27601325117842","mean_motion":15.27601325,"eccentricity":0.0001547,"inclination_deg":43.0016,"raan_deg":247.2893,"arg_perigee_deg":276.2063,"mean_anomaly_deg":83.8613,"bstar":0.00023472,"rev_number":11784,"period_min":94.265432769247,"perigee_km":481.92382645001,"apogee_km":484.0466576717,"semimajor_km":6861.1222420609,"source":"CELESTRAK","updated_at":"2026-05-25T13:38:18.974712Z"}}